Location: Archemont
(49.1579°N, 1.7598°E)
Time: 02:22:21
(UTC+00:00)

S-56A Canister/Altair - Pass Details

Date: 24 April 2024
Orbit: 638 x 2488 km, 38.9° (Epoch: 21 May)

Event Time Altitude Azimuth Distance (km) Brightness Sun altitude
Rises 18:45:17 0° 259° (W) 3,346 12.0 1.3°
Reaches altitude 10° 18:47:41 10° 249° (WSW) 2,583 11.1 1.0°
Maximum altitude 18:53:07 33° 187° (S) 1,823 9.4 0.1°
Drops below altitude 10° 19:00:42 10° 129° (SE) 3,658 10.4 -1.0°
Enters shadow 19:04:17 - 122° (ESE) 4,812 10.9 -1.6°
Sets 19:04:47 0° 121° (ESE) 4,972 - -1.6°
